Flag for Canada Weather past 2 weeks in Caledon, Ontario, Canada

Now
63 °F

Overcast.


Feels Like: 63 °F
Forecast: 61 / 80 °F
Wind: 3 mph from South

Location: Borden

Current Time: Aug 30, 2015 at 6:03:40 AM

Latest Report: Aug 30, 2015 at 5:00 AM


Visibility: 7 mi

Pressure: 30.06 "Hg

Humidity: 94%

Dew point: 61 °F

Location of CaledonLocation

Historic Weather in Caledon — Graph

°F

Caledon temperature yesterday

Maximum temperature yesterday: 70 °F (at 10:00 AM)
Minimum temperature yesterday: 52 °F (at 2:00 AM)
Average temperature yesterday: 63 °F

Past Weeks' High & Low Weather Summary

 TemperatureHumidityPressure
High88 °F (Aug 16, 2:00 PM)100% (Aug 15, 5:02 AM)30.22 "Hg (Aug 15, 5:02 AM)
Low43 °F (Aug 22, 6:00 AM)40% (Aug 16, 4:00 PM)29.66 "Hg (Aug 20, 7:00 AM)
Average66 °F82%30.00 "Hg
* Reported Aug 15 5:02 AM — Aug 30 5:00 AM, Caledon, Weather by CustomWeather, © 2015

Note: Actual official high and low records may vary slightly from our data, if they occured in-between our weather recording intervals... More about our weather records

Advertising

Caledon weather history for previous 24 hours

 ConditionsComfort  
Time TempWeatherWind HumidityBarometerVisibility
5:00 AM
Sun, Aug 30
63 °FOvercast.3 mph94%30.06 "Hg7 mi
4:00 AM63 °FMostly cloudy.No wind100%30.06 "Hg6 mi
3:00 AM61 °FOvercast.2 mph100%30.06 "Hg6 mi
2:00 AM61 °FMostly cloudy.No wind100%30.08 "Hg5 mi
1:00 AM61 °FOvercast.No wind100%30.09 "Hg5 mi
12:48 AM61 °FOvercast.No wind100%30.09 "Hg5 mi
12:00 AM61 °FPassing clouds.No wind94%30.09 "Hg2 mi
11:51 PM
Sat, Aug 29
59 °FPassing clouds.No wind100%30.09 "Hg2 mi
11:00 PM63 °FPassing clouds.No wind94%30.10 "Hg7 mi
10:00 PM64 °FOvercast.No wind94%30.09 "Hg9 mi
9:00 PM64 °FOvercast.No wind94%30.09 "Hg9 mi
8:00 PM68 °FPassing clouds.No wind83%30.08 "Hg9 mi
7:00 PM70 °FScattered clouds.No wind78%30.09 "Hg9 mi
6:00 PM70 °FScattered clouds.No wind78%30.10 "Hg9 mi
5:00 PM70 °FPassing clouds.No wind78%30.10 "Hg9 mi
4:00 PM70 °FSunny.No wind73%30.11 "Hg9 mi
3:00 PM70 °FPassing clouds.No wind73%30.13 "Hg9 mi
2:00 PM70 °FSunny.6 mph73%30.14 "Hg9 mi
1:00 PM68 °FPassing clouds.7 mph83%30.15 "Hg9 mi
12:00 PM68 °FPassing clouds.9 mph83%30.15 "Hg9 mi
11:02 AM70 °FPassing clouds.7 mph78%30.13 "Hg9 mi
10:00 AM70 °FLight rain. Scattered clouds.5 mph78%30.14 "Hg9 mi
9:51 AM68 °FLight rain. Scattered clouds.10 mph78%30.14 "Hg9 mi
9:00 AM64 °FSunny.6 mph88%30.14 "Hg9 mi
8:00 AM59 °FPassing clouds.5 mph100%30.14 "Hg8 mi
7:00 AM55 °FClear.3 mph100%30.13 "Hg8 mi
6:00 AM54 °FClear.3 mph100%30.12 "Hg7 mi
Weather by CustomWeather, © 2015

See weather overviewHow to use our weather pages